| time (UTC) | temp F | wind direction | speed knots | gust knots | rain 1hr in | rain 24hr in | rain mn in | humidity % | barometer mb |
| 20260502203512 | 58 | 282 | 1.7 | 9.6 | 0.00 | 0.00 | 0.00 | 38 | 1012.7 |
| 20260502203036 | 58 | 274 | 1.7 | 6.1 | 0.00 | 0.00 | 0.00 | 37 | 1012.8 |
| 20260502202510 | 58 | 333 | 2.6 | 8.7 | 0.00 | 0.00 | 0.00 | 33 | 1012.7 |
| 20260502202015 | 57 | 264 | 1.7 | 8.7 | 0.00 | 0.00 | 0.00 | 38 | 1012.7 |
| 20260502201530 | 57 | 227 | 3.5 | 8.7 | 0.00 | 0.00 | 0.00 | 38 | 1012.8 |
| 20260502201010 | 57 | 269 | 2.6 | 7.8 | 0.00 | 0.00 | 0.00 | 34 | 1012.8 |
| 20260502200514 | 57 | 269 | 3.5 | 7.8 | 0.00 | 0.00 | 0.00 | 36 | 1012.9 |
| 20260502200054 | 57 | 233 | 3.5 | 7.0 | 0.00 | 0.00 | 0.00 | 35 | 1012.9 |
| 20260502195510 | 58 | 222 | 2.6 | 5.2 | 0.00 | 0.00 | 0.00 | 35 | 1013.1 |
| 20260502195010 | 59 | 218 | 0.9 | 7.8 | 0.00 | 0.00 | 0.00 | 32 | 1013.1 |
| 20260502194531 | 58 | 233 | 3.5 | 7.8 | 0.00 | 0.00 | 0.00 | 36 | 1013.2 |
| 20260502194010 | 58 | 213 | 2.6 | 7.0 | 0.00 | 0.00 | 0.00 | 43 | 1013.3 |
| 20260502193511 | 58 | 280 | 1.7 | 7.8 | 0.00 | 0.00 | 0.00 | 32 | 1013.3 |
| 20260502193031 | 57 | 281 | 1.7 | 10.4 | 0.00 | 0.00 | 0.00 | 31 | 1013.4 |
| 20260502192510 | 58 | 226 | 2.6 | 10.4 | 0.00 | 0.00 | 0.00 | 34 | 1013.7 |
| 20260502192014 | 57 | 205 | 2.6 | 7.8 | 0.00 | 0.00 | 0.00 | 33 | 1013.7 |
| 20260502191530 | 56 | 219 | 0.9 | 7.8 | 0.00 | 0.00 | 0.00 | 36 | 1013.8 |
| 20260502191010 | 56 | 183 | 3.5 | 6.1 | 0.00 | 0.00 | 0.00 | 37 | 1013.9 |
| 20260502190511 | 57 | 198 | 1.7 | 13.0 | 0.00 | 0.00 | 0.00 | 34 | 1014.1 |
| 20260502190030 | 56 | 259 | 3.5 | 13.0 | 0.00 | 0.00 | 0.00 | 35 | 1014.1 |
| 20260502185511 | 56 | 226 | 3.5 | 7.0 | 0.00 | 0.00 | 0.00 | 37 | 1014.2 |
| 20260502185015 | 57 | 193 | 1.7 | 6.1 | 0.00 | 0.00 | 0.00 | 40 | 1014.3 |
| 20260502184530 | 56 | 257 | 0.9 | 6.1 | 0.00 | 0.00 | 0.00 | 38 | 1014.3 |
| 20260502184010 | 56 | 0 | 1.7 | 7.0 | 0.00 | 0.00 | 0.00 | 33 | 1014.4 |
| 20260502183512 | 56 | 209 | 2.6 | 9.6 | 0.00 | 0.00 | 0.00 | 36 | 1014.5 |
| 20260502183036 | 56 | 263 | 1.7 | 9.6 | 0.00 | 0.00 | 0.00 | 37 | 1014.5 |
| 20260502182514 | 56 | 222 | 3.5 | 8.7 | 0.00 | 0.00 | 0.00 | 37 | 1014.5 |
| 20260502182014 | 54 | 270 | 0.9 | 8.7 | 0.00 | 0.00 | 0.00 | 39 | 1014.6 |
| 20260502181531 | 55 | 0 | 2.6 | 8.7 | 0.00 | 0.00 | 0.00 | 38 | 1014.8 |
| 20260502181007 | 55 | 223 | 3.5 | 7.0 | 0.00 | 0.00 | 0.00 | 37 | 1014.9 |
| 20260502180512 | 54 | 277 | 2.6 | 8.7 | 0.00 | 0.00 | 0.00 | 41 | 1014.8 |
| 20260502170514 | 53 | 0 | 0.9 | 4.3 | 0.00 | 0.00 | 0.00 | 37 | 1015.8 |
| 20260502164009 | 53 | 69 | 0.0 | 6.1 | 0.00 | 0.00 | 0.00 | 37 | 1016.3 |
| 20260502163512 | 53 | 115 | 0.9 | 4.3 | 0.00 | 0.00 | 0.00 | 36 | 1016.3 |
| 20260502163030 | 53 | 198 | 0.9 | 3.5 | 0.00 | 0.00 | 0.00 | 38 | 1016.3 |
| 20260502162511 | 53 | 260 | 1.7 | 7.8 | 0.00 | 0.00 | 0.00 | 41 | 1016.5 |
| 20260502162012 | 52 | 232 | 2.6 | 7.8 | 0.00 | 0.00 | 0.00 | 39 | 1016.5 |
| 20260502161530 | 52 | 244 | 2.6 | 7.8 | 0.00 | 0.00 | 0.00 | 39 | 1016.6 |
| 20260502161011 | 53 | 0 | 1.7 | 5.2 | 0.00 | 0.00 | 0.00 | 38 | 1016.7 |
| 20260502160514 | 53 | 0 | 0.9 | 9.6 | 0.00 | 0.00 | 0.00 | 37 | 1016.6 |
| 20260502152015 | 52 | 255 | 0.9 | 5.2 | 0.00 | 0.00 | 0.00 | 40 | 1017.0 |
| 20260502151531 | 52 | 269 | 1.7 | 5.2 | 0.00 | 0.00 | 0.00 | 41 | 1017.1 |
| 20260502151012 | 52 | 228 | 0.9 | 4.3 | 0.00 | 0.00 | 0.00 | 42 | 1017.1 |
| 20260502150513 | 51 | 315 | 0.9 | 4.3 | 0.00 | 0.00 | 0.00 | 42 | 1017.1 |
| 20260502130512 | 41 | 218 | 1.7 | 6.1 | 0.00 | 0.00 | 0.00 | 65 | 1017.9 |
| 20260502123514 | 37 | 202 | 0.9 | 3.5 | 0.00 | 0.00 | 0.00 | 68 | 1018.0 |
| 20260502123029 | 37 | 234 | 1.7 | 3.5 | 0.00 | 0.00 | 0.00 | 72 | 1018.1 |
| 20260502122508 | 36 | 234 | 1.7 | 3.5 | 0.00 | 0.00 | 0.00 | 72 | 1018.1 |
| 20260502122011 | 35 | 234 | 1.7 | 3.5 | 0.00 | 0.00 | 0.00 | 73 | 1018.1 |
| 20260502121535 | 34 | 234 | 1.7 | 3.5 | 0.00 | 0.00 | 0.00 | 75 | 1018.0 |
| 20260502121009 | 34 | 302 | 0.0 | 2.6 | 0.00 | 0.00 | 0.00 | 77 | 1018.0 |
| 20260502120511 | 33 | 0 | 0.0 | 0.0 | 0.00 | 0.00 | 0.00 | 78 | 1018.1 |
| 20260502115510 | 32 | 0 | 0.0 | 0.9 | 0.00 | 0.00 | 0.00 | 79 | 1018.0 |
| 20260502115013 | 32 | 0 | 0.0 | 0.9 | 0.00 | 0.00 | 0.00 | 79 | 1018.0 |
| 20260502114530 | 32 | 0 | 0.0 | 0.0 | 0.00 | 0.00 | 0.00 | 79 | 1017.9 |
| 20260502114010 | 31 | 0 | 0.0 | 0.0 | 0.00 | 0.00 | 0.00 | 80 | 1018.0 |
| 20260502113508 | 31 | 0 | 0.0 | 0.0 | 0.00 | 0.00 | 0.00 | 83 | 1018.0 |
| 20260502113031 | 30 | 0 | 0.0 | 0.0 | 0.00 | 0.00 | 0.00 | 83 | 1018.0 |
| 20260502112508 | 30 | 0 | 0.0 | 0.0 | 0.00 | 0.00 | 0.00 | 81 | 1017.9 |
| 20260502112016 | 30 | 0 | 0.0 | 0.0 | 0.00 | 0.00 | 0.00 | 79 | 1017.9 |
| 20260502111532 | 30 | 0 | 0.0 | 0.0 | 0.00 | 0.00 | 0.00 | 76 | 1017.9 |
| 20260502111011 | 30 | 0 | 0.0 | 0.0 | 0.00 | 0.00 | 0.00 | 75 | 1017.9 |
| 20260502110513 | 31 | 0 | 0.0 | 0.0 | 0.00 | 0.00 | 0.00 | 74 | 1017.9 |
| 20260502110035 | 31 | 0 | 0.0 | 0.0 | 0.00 | 0.00 | 0.00 | 73 | 1017.8 |
| 20260502105511 | 32 | 0 | 0.0 | 0.0 | 0.00 | 0.00 | 0.00 | 73 | 1018.0 |
| 20260502105011 | 32 | 0 | 0.0 | 0.0 | 0.00 | 0.00 | 0.00 | 73 | 1017.9 |
| 20260502104529 | 32 | 0 | 0.0 | 0.0 | 0.00 | 0.00 | 0.00 | 73 | 1017.9 |
| 20260502104013 | 32 | 0 | 0.0 | 1.7 | 0.00 | 0.00 | 0.00 | 73 | 1017.9 |
| 20260502103511 | 32 | 0 | 0.0 | 1.7 | 0.00 | 0.00 | 0.00 | 73 | 1018.0 |
| 20260502103056 | 32 | 0 | 0.0 | 1.7 | 0.00 | 0.00 | 0.00 | 73 | 1018.0 |
| 20260502102513 | 32 | 0 | 0.0 | 1.7 | 0.00 | 0.00 | 0.00 | 74 | 1018.0 |
| 20260502102013 | 32 | 0 | 0.0 | 1.7 | 0.00 | 0.00 | 0.00 | 74 | 1018.0 |
| 20260502101546 | 32 | 0 | 0.0 | 1.7 | 0.00 | 0.00 | 0.00 | 74 | 1018.1 |
| 20260502101012 | 32 | 0 | 0.0 | 0.0 | 0.00 | 0.00 | 0.00 | 74 | 1018.0 |
| 20260502100512 | 32 | 0 | 0.0 | 0.0 | 0.00 | 0.00 | 0.00 | 75 | 1018.0 |
| 20260502091529 | 32 | 0 | 0.0 | 0.0 | 0.00 | 0.00 | 0.00 | 76 | 1018.1 |
| 20260502091011 | 32 | 0 | 0.0 | 0.0 | 0.00 | 0.00 | 0.00 | 77 | 1018.1 |
| 20260502090511 | 32 | 0 | 0.0 | 0.0 | 0.00 | 0.00 | 0.00 | 77 | 1018.1 |
| 20260502071534 | 31 | 0 | 0.0 | 0.0 | 0.00 | 0.00 | 0.00 | 82 | 1018.5 |
| 20260502071010 | 31 | 0 | 0.0 | 0.0 | 0.00 | 0.00 | 0.00 | 83 | 1018.5 |
| 20260502070513 | 30 | 0 | 0.0 | 0.0 | 0.00 | 0.00 | 0.00 | 83 | 1018.6 |
| 20260502070030 | 31 | 0 | 0.0 | 0.0 | 0.00 | 0.00 | 0.00 | 82 | 1018.6 |
| 20260502065513 | 31 | 0 | 0.0 | 0.0 | 0.00 | 0.00 | 0.00 | 81 | 1018.6 |
| 20260502065017 | 31 | 0 | 0.0 | 0.0 | 0.00 | 0.00 | 0.00 | 82 | 1018.6 |
| 20260502064535 | 32 | 0 | 0.0 | 0.0 | 0.00 | 0.00 | 0.00 | 84 | 1018.7 |
| 20260502064012 | 32 | 0 | 0.0 | 0.0 | 0.00 | 0.00 | 0.00 | 86 | 1018.7 |
| 20260502063510 | 32 | 0 | 0.0 | 0.0 | 0.00 | 0.00 | 0.00 | 86 | 1018.7 |
| 20260502063032 | 32 | 0 | 0.0 | 0.0 | 0.00 | 0.00 | 0.00 | 85 | 1018.7 |
| 20260502062513 | 31 | 0 | 0.0 | 0.0 | 0.00 | 0.00 | 0.00 | 85 | 1018.7 |
| 20260502062011 | 31 | 0 | 0.0 | 0.0 | 0.00 | 0.00 | 0.00 | 84 | 1018.8 |
| 20260502061528 | 31 | 0 | 0.0 | 0.0 | 0.00 | 0.00 | 0.00 | 83 | 1018.7 |
| 20260502061013 | 31 | 0 | 0.0 | 0.0 | 0.00 | 0.00 | 0.00 | 80 | 1018.8 |
| 20260502060512 | 31 | 0 | 0.0 | 0.0 | 0.00 | 0.00 | 0.00 | 80 | 1018.8 |
| 20260502060030 | 31 | 0 | 0.0 | 0.0 | 0.00 | 0.00 | 0.00 | 80 | 1018.8 |
| 20260502055511 | 31 | 0 | 0.0 | 0.0 | 0.00 | 0.00 | 0.00 | 80 | 1018.8 |
| 20260502055009 | 31 | 0 | 0.0 | 0.0 | 0.00 | 0.00 | 0.00 | 83 | 1018.8 |
| 20260502054545 | 31 | 0 | 0.0 | 0.0 | 0.00 | 0.00 | 0.00 | 82 | 1018.7 |
| 20260502054009 | 31 | 0 | 0.0 | 0.0 | 0.00 | 0.00 | 0.00 | 80 | 1018.8 |
| 20260502053513 | 32 | 0 | 0.0 | 0.0 | 0.00 | 0.00 | 0.00 | 80 | 1018.8 |
| 20260502053032 | 32 | 0 | 0.0 | 0.0 | 0.00 | 0.00 | 0.00 | 79 | 1018.8 |
| 20260502052510 | 32 | 0 | 0.0 | 0.0 | 0.00 | 0.00 | 0.00 | 80 | 1018.8 |
| 20260502052012 | 32 | 0 | 0.0 | 0.0 | 0.00 | 0.00 | 0.00 | 78 | 1018.8 |
| 20260502051533 | 32 | 0 | 0.0 | 0.0 | 0.00 | 0.00 | 0.00 | 77 | 1018.8 |
| 20260502051009 | 33 | 0 | 0.0 | 0.0 | 0.00 | 0.00 | 0.00 | 78 | 1018.8 |
| 20260502050508 | 33 | 0 | 0.0 | 0.0 | 0.00 | 0.00 | 0.00 | 80 | 1018.8 |
| 20260502050031 | 33 | 0 | 0.0 | 0.0 | 0.00 | 0.00 | 0.00 | 82 | 1018.9 |
| 20260502045510 | 33 | 0 | 0.0 | 0.0 | 0.00 | 0.00 | 0.00 | 83 | 1018.9 |
| 20260502045011 | 33 | 0 | 0.0 | 0.0 | 0.00 | 0.00 | 0.00 | 81 | 1018.8 |
| 20260502044530 | 33 | 0 | 0.0 | 0.0 | 0.00 | 0.00 | 0.00 | 79 | 1018.8 |
| 20260502044008 | 34 | 0 | 0.0 | 0.0 | 0.00 | 0.00 | 0.00 | 77 | 1018.8 |
| 20260502043511 | 34 | 0 | 0.0 | 0.0 | 0.00 | 0.00 | 0.00 | 76 | 1018.9 |
| 20260502043031 | 35 | 0 | 0.0 | 0.0 | 0.00 | 0.00 | 0.00 | 73 | 1018.8 |
| 20260502042511 | 35 | 0 | 0.0 | 0.0 | 0.00 | 0.00 | 0.00 | 73 | 1018.9 |
| 20260502042013 | 35 | 0 | 0.0 | 0.0 | 0.00 | 0.00 | 0.00 | 73 | 1018.9 |
| 20260502041534 | 35 | 0 | 0.0 | 0.0 | 0.00 | 0.00 | 0.00 | 73 | 1018.9 |
| 20260502041010 | 35 | 0 | 0.0 | 0.0 | 0.00 | 0.00 | 0.00 | 74 | 1018.9 |
| 20260502040513 | 35 | 0 | 0.0 | 0.0 | 0.00 | 0.00 | 0.00 | 75 | 1018.9 |
| 20260502040032 | 35 | 0 | 0.0 | 0.0 | 0.00 | 0.00 | 0.00 | 77 | 1018.9 |
| 20260502035509 | 36 | 0 | 0.0 | 0.0 | 0.00 | 0.00 | 0.00 | 78 | 1019.1 |
| 20260502035013 | 36 | 0 | 0.0 | 0.0 | 0.00 | 0.00 | 0.00 | 71 | 1018.9 |
| 20260502034530 | 36 | 0 | 0.0 | 0.0 | 0.00 | 0.00 | 0.00 | 69 | 1019.0 |
| 20260502034014 | 36 | 0 | 0.0 | 0.0 | 0.00 | 0.00 | 0.00 | 69 | 1018.9 |
| 20260502033510 | 37 | 0 | 0.0 | 0.0 | 0.00 | 0.00 | 0.00 | 70 | 1018.9 |
| 20260502033039 | 37 | 0 | 0.0 | 0.0 | 0.00 | 0.00 | 0.00 | 69 | 1018.9 |
| 20260502032513 | 37 | 0 | 0.0 | 3.5 | 0.00 | 0.00 | 0.00 | 69 | 1018.9 |
| 20260502032015 | 38 | 0 | 0.0 | 3.5 | 0.00 | 0.00 | 0.00 | 69 | 1018.9 |
| 20260502031530 | 38 | 302 | 0.0 | 3.5 | 0.00 | 0.00 | 0.00 | 68 | 1018.9 |
| 20260502031009 | 39 | 0 | 0.0 | 3.5 | 0.00 | 0.00 | 0.00 | 67 | 1018.9 |
| 20260502030511 | 39 | 302 | 0.0 | 3.5 | 0.00 | 0.00 | 0.00 | 67 | 1018.9 |
| 20260502030035 | 40 | 302 | 0.9 | 3.5 | 0.00 | 0.00 | 0.00 | 68 | 1018.9 |
| 20260502025510 | 40 | 0 | 0.0 | 1.7 | 0.00 | 0.00 | 0.00 | 63 | 1018.8 |
| 20260502025011 | 40 | 0 | 0.0 | 2.6 | 0.00 | 0.00 | 0.00 | 63 | 1018.8 |
| 20260502024530 | 41 | 302 | 0.9 | 2.6 | 0.00 | 0.00 | 0.00 | 63 | 1018.9 |
| 20260502024015 | 40 | 0 | 0.0 | 0.0 | 0.00 | 0.00 | 0.00 | 63 | 1018.9 |
| 20260502023512 | 41 | 0 | 0.0 | 2.6 | 0.00 | 0.00 | 0.00 | 62 | 1018.9 |
| 20260502023031 | 41 | 0 | 0.0 | 2.6 | 0.00 | 0.00 | 0.00 | 60 | 1018.9 |
| 20260502022508 | 40 | 0 | 0.0 | 2.6 | 0.00 | 0.00 | 0.00 | 63 | 1018.9 |
| 20260502022016 | 40 | 302 | 0.9 | 2.6 | 0.00 | 0.00 | 0.00 | 68 | 1018.9 |
| 20260502021531 | 39 | 0 | 0.0 | 0.0 | 0.00 | 0.00 | 0.00 | 64 | 1018.9 |
| 20260502021008 | 39 | 0 | 0.0 | 0.0 | 0.00 | 0.00 | 0.00 | 63 | 1018.8 |
| 20260502020511 | 40 | 0 | 0.0 | 0.0 | 0.00 | 0.00 | 0.00 | 62 | 1018.8 |
| 20260502020032 | 40 | 0 | 0.0 | 0.0 | 0.00 | 0.00 | 0.00 | 62 | 1018.8 |
| 20260502015514 | 40 | 0 | 0.0 | 0.0 | 0.00 | 0.00 | 0.00 | 61 | 1018.8 |
| 20260502015017 | 40 | 0 | 0.0 | 0.0 | 0.00 | 0.00 | 0.00 | 61 | 1018.7 |
| 20260502014531 | 40 | 0 | 0.0 | 0.0 | 0.00 | 0.00 | 0.00 | 60 | 1018.7 |
| 20260502014012 | 41 | 0 | 0.0 | 0.0 | 0.00 | 0.00 | 0.00 | 59 | 1018.7 |
| 20260502013512 | 41 | 0 | 0.0 | 0.0 | 0.00 | 0.00 | 0.00 | 58 | 1018.6 |
| 20260502013032 | 41 | 0 | 0.0 | 0.0 | 0.00 | 0.00 | 0.00 | 58 | 1018.6 |
| 20260502012511 | 41 | 0 | 0.0 | 0.0 | 0.00 | 0.00 | 0.00 | 58 | 1018.6 |
| 20260502012015 | 42 | 0 | 0.0 | 0.0 | 0.00 | 0.00 | 0.00 | 57 | 1018.5 |
| 20260502011532 | 42 | 0 | 0.0 | 0.0 | 0.00 | 0.00 | 0.00 | 58 | 1018.5 |
| 20260502011012 | 43 | 0 | 0.0 | 0.0 | 0.00 | 0.00 | 0.00 | 57 | 1018.5 |
| 20260502010512 | 43 | 0 | 0.0 | 0.0 | 0.00 | 0.00 | 0.00 | 55 | 1018.5 |
| 20260502010030 | 44 | 0 | 0.0 | 0.0 | 0.00 | 0.00 | 0.00 | 57 | 1018.5 |
| 20260502005515 | 44 | 0 | 0.0 | 0.0 | 0.00 | 0.00 | 0.00 | 54 | 1018.5 |
| 20260502005013 | 44 | 0 | 0.0 | 0.0 | 0.00 | 0.00 | 0.00 | 54 | 1018.5 |
| 20260502004532 | 44 | 0 | 0.0 | 0.0 | 0.00 | 0.00 | 0.00 | 52 | 1018.5 |
| 20260502004012 | 44 | 0 | 0.0 | 0.0 | 0.00 | 0.00 | 0.00 | 55 | 1018.5 |
| 20260502003510 | 44 | 0 | 0.0 | 0.0 | 0.00 | 0.00 | 0.00 | 55 | 1018.5 |
| 20260502003029 | 44 | 0 | 0.0 | 0.0 | 0.00 | 0.00 | 0.00 | 55 | 1018.5 |
| 20260502002510 | 45 | 0 | 0.0 | 0.0 | 0.00 | 0.00 | 0.00 | 54 | 1018.5 |
| 20260502002010 | 45 | 0 | 0.0 | 0.0 | 0.00 | 0.00 | 0.00 | 55 | 1018.5 |
| 20260502001533 | 45 | 0 | 0.0 | 1.7 | 0.00 | 0.00 | 0.00 | 52 | 1018.5 |
| 20260502001012 | 45 | 0 | 0.0 | 1.7 | 0.00 | 0.00 | 0.00 | 53 | 1018.5 |
| 20260502000514 | 45 | 302 | 0.0 | 1.7 | 0.00 | 0.00 | 0.00 | 53 | 1018.5 |
| 20260502000032 | 45 | 0 | 0.0 | 1.7 | 0.00 | 0.00 | 0.00 | 48 | 1018.5 |
| 20260501235513 | 45 | 0 | 0.0 | 1.7 | 0.00 | 0.00 | 0.00 | 50 | 1018.4 |
| 20260501235016 | 46 | 302 | 0.0 | 1.7 | 0.00 | 0.00 | 0.00 | 50 | 1018.4 |
| 20260501234534 | 46 | 0 | 0.0 | 2.6 | 0.00 | 0.00 | 0.00 | 51 | 1018.4 |
| 20260501234012 | 46 | 0 | 0.0 | 3.5 | 0.00 | 0.00 | 0.00 | 49 | 1018.4 |
| 20260501233510 | 46 | 0 | 0.9 | 4.3 | 0.00 | 0.00 | 0.00 | 48 | 1018.4 |
| 20260501233042 | 46 | 0 | 0.0 | 4.3 | 0.00 | 0.00 | 0.00 | 45 | 1018.3 |
| 20260501232513 | 46 | 15 | 0.9 | 4.3 | 0.00 | 0.00 | 0.00 | 45 | 1018.3 |
| 20260501232013 | 46 | 0 | 0.9 | 3.5 | 0.00 | 0.00 | 0.00 | 45 | 1018.3 |
| 20260501231532 | 46 | 0 | 0.0 | 2.6 | 0.00 | 0.00 | 0.00 | 45 | 1018.2 |
| 20260501231013 | 47 | 0 | 0.9 | 2.6 | 0.00 | 0.00 | 0.00 | 48 | 1018.3 |
| 20260501230510 | 47 | 0 | 0.0 | 1.7 | 0.00 | 0.00 | 0.00 | 48 | 1018.3 |
| 20260501230030 | 47 | 0 | 0.0 | 1.7 | 0.00 | 0.00 | 0.00 | 44 | 1018.4 |
| 20260501225508 | 47 | 0 | 0.0 | 2.6 | 0.00 | 0.00 | 0.00 | 46 | 1018.2 |
| 20260501225014 | 47 | 355 | 0.0 | 4.3 | 0.00 | 0.00 | 0.00 | 45 | 1018.4 |
| 20260501224530 | 47 | 84 | 0.9 | 4.3 | 0.00 | 0.00 | 0.00 | 45 | 1018.3 |
| 20260501224010 | 47 | 291 | 0.9 | 6.1 | 0.00 | 0.00 | 0.00 | 45 | 1018.3 |
| 20260501223511 | 47 | 0 | 0.9 | 6.1 | 0.00 | 0.00 | 0.00 | 46 | 1018.3 |
| 20260501223037 | 47 | 273 | 0.9 | 6.1 | 0.00 | 0.00 | 0.00 | 45 | 1018.3 |
| 20260501222511 | 47 | 304 | 0.9 | 4.3 | 0.00 | 0.00 | 0.00 | 47 | 1018.3 |
| 20260501222014 | 47 | 0 | 0.0 | 3.5 | 0.00 | 0.00 | 0.00 | 51 | 1018.3 |
| 20260501221533 | 47 | 256 | 0.9 | 3.5 | 0.00 | 0.00 | 0.00 | 46 | 1018.3 |
| 20260501221010 | 47 | 0 | 0.0 | 2.6 | 0.00 | 0.00 | 0.00 | 49 | 1018.4 |
| 20260501220512 | 47 | 223 | 0.0 | 7.8 | 0.00 | 0.00 | 0.00 | 50 | 1018.4 |
| 20260501220030 | 47 | 0 | 0.0 | 7.8 | 0.00 | 0.00 | 0.00 | 47 | 1018.4 |
| 20260501215509 | 47 | 0 | 1.7 | 7.8 | 0.00 | 0.00 | 0.00 | 43 | 1018.4 |
| 20260501215011 | 47 | 283 | 0.0 | 3.5 | 0.00 | 0.00 | 0.00 | 46 | 1018.3 |
| 20260501214533 | 47 | 89 | 0.0 | 4.3 | 0.00 | 0.00 | 0.00 | 51 | 1018.3 |
| 20260501214009 | 47 | 78 | 0.9 | 4.3 | 0.00 | 0.00 | 0.00 | 49 | 1018.3 |
| 20260501213512 | 47 | 223 | 0.9 | 5.2 | 0.00 | 0.00 | 0.00 | 48 | 1018.3 |
| 20260501213031 | 47 | 326 | 0.9 | 7.0 | 0.00 | 0.00 | 0.00 | 47 | 1018.4 |
| 20260501212509 | 47 | 311 | 2.6 | 7.0 | 0.00 | 0.00 | 0.00 | 44 | 1018.4 |
| 20260501212008 | 47 | 40 | 2.6 | 7.0 | 0.00 | 0.00 | 0.00 | 46 | 1018.4 |
| 20260501211547 | 47 | 0 | 0.9 | 4.3 | 0.00 | 0.00 | 0.00 | 45 | 1018.5 |
| 20260501211015 | 47 | 273 | 0.9 | 9.6 | 0.00 | 0.00 | 0.00 | 47 | 1018.5 |
| 20260501210510 | 46 | 0 | 1.7 | 9.6 | 0.00 | 0.00 | 0.00 | 46 | 1018.5 |
| 20260501210038 | 46 | 97 | 0.9 | 2.6 | 0.00 | 0.00 | 0.00 | 48 | 1018.4 |
| 20260501205512 | 46 | 350 | 0.9 | 1.7 | 0.00 | 0.00 | 0.00 | 48 | 1018.6 |
| 20260501205012 | 46 | 40 | 0.0 | 2.6 | 0.00 | 0.00 | 0.00 | 48 | 1018.6 |
| 20260501204532 | 46 | 40 | 0.0 | 3.5 | 0.00 | 0.00 | 0.00 | 49 | 1018.6 |
| 20260501204010 | 46 | 40 | 0.9 | 3.5 | 0.00 | 0.00 | 0.00 | 51 | 1018.7 |